Flag for Israel Weather past 2 weeks in Rehovot, Israel

Now
59 °F

Passing clouds.


Feels Like: 57 °F
Forecast: 53 / 69 °F
Wind: 9 mph from South

Location: Ben Gurion International Airport

Current Time: Mar 4, 2015 at 9:29:31 AM

Latest Report: Mar 4, 2015 at 8:50 AM


Visibility: N/A

Pressure: 30.15 "Hg

Humidity: 82%

Dew point: 54 °F

Location of RehovotLocation

Historic Weather in Rehovot — Graph

°F

Rehovot temperature yesterday

Maximum temperature yesterday: 66 °F (at 10:20 AM)
Minimum temperature yesterday: 52 °F (at 4:20 AM)
Average temperature yesterday: 59 °F

Past Weeks' High & Low Weather Summary

 TemperatureHumidityPressure
High86 °F (Feb 27, 1:50 PM)94% (Feb 18, 4:20 AM)30.21 "Hg (Feb 18, 4:20 AM)
Low41 °F (Feb 19, 11:20 PM)19% (Feb 27, 11:50 AM)29.71 "Hg (Feb 20, 4:50 AM)
Average58 °F67%30.02 "Hg
* Reported Feb 17 8:20 AM — Mar 4 8:20 AM, Rehovot, Weather by CustomWeather, © 2015

Note: Actual official high and low records may vary slightly from our data, if they occured in-between our weather recording intervals... More about our weather records

Advertising

Rehovot weather history for previous 24 hours

 ConditionsComfort  
Time TempWeatherWind HumidityBarometerVisibility
8:20 AM
Wed, Mar 4
57 °FScattered clouds.8 mph88%30.15 "HgN/A
7:50 AM57 °FScattered clouds.9 mph88%30.15 "HgN/A
7:20 AM55 °FScattered clouds.8 mph88%30.15 "HgN/A
6:50 AM55 °FLight rain. Scattered clouds.9 mph88%30.15 "HgN/A
6:20 AM55 °FScattered clouds.8 mph88%30.12 "HgN/A
5:50 AM55 °FPassing clouds.8 mph88%30.12 "HgN/A
5:20 AM55 °FPassing clouds.7 mph88%30.12 "HgN/A
4:50 AM55 °FPassing clouds.5 mph88%30.09 "HgN/A
4:20 AM55 °FLight rain. Overcast.5 mph82%30.09 "HgN/A
3:50 AM55 °FPassing clouds.7 mph82%30.09 "HgN/A
3:20 AM55 °FPassing clouds.7 mph82%30.12 "HgN/A
2:50 AM55 °FPassing clouds.8 mph82%30.12 "HgN/A
2:20 AM55 °FPartly cloudy.8 mph82%30.12 "HgN/A
1:50 AM55 °FPartly cloudy.8 mph82%30.12 "HgN/A
1:20 AM55 °FPassing clouds.10 mph82%30.12 "HgN/A
12:50 AM55 °FPassing clouds.9 mph82%30.15 "HgN/A
12:20 AM55 °FPassing clouds.7 mph82%30.15 "HgN/A
11:20 PM
Tue, Mar 3
55 °FPassing clouds.7 mph82%30.15 "HgN/A
10:50 PM55 °FPassing clouds.7 mph82%30.15 "HgN/A
10:20 PM57 °FPassing clouds.6 mph82%30.15 "HgN/A
9:50 PM57 °FPassing clouds.8 mph82%30.15 "HgN/A
9:20 PM57 °FPassing clouds.3 mph82%30.15 "HgN/A
8:50 PM57 °FPassing clouds.3 mph82%30.15 "HgN/A
8:20 PM59 °FPassing clouds.6 mph77%30.12 "HgN/A
7:50 PM59 °FPassing clouds.5 mph77%30.15 "HgN/A
7:20 PM59 °FPassing clouds.5 mph77%30.15 "HgN/A
6:50 PM59 °FPassing clouds.3 mph77%30.12 "HgN/A
6:20 PM59 °FPassing clouds.3 mph77%30.12 "HgN/A
5:50 PM61 °FPassing clouds.6 mph72%30.12 "HgN/A
5:20 PM61 °FPassing clouds.8 mph72%30.12 "HgN/A
4:50 PM63 °FPassing clouds.8 mph68%30.12 "HgN/A
4:20 PM64 °FPassing clouds.10 mph60%30.12 "HgN/A
3:50 PM64 °FPassing clouds.10 mph60%30.12 "HgN/A
3:20 PM66 °FPassing clouds.10 mph56%30.09 "HgN/A
2:50 PM66 °FPassing clouds.9 mph56%30.12 "HgN/A
2:20 PM64 °FPassing clouds.12 mph56%30.12 "HgN/A
1:50 PM66 °FPassing clouds.10 mph52%30.12 "HgN/A
1:20 PM66 °FScattered clouds.8 mph49%30.12 "HgN/A
12:50 PM66 °FScattered clouds.8 mph49%30.12 "HgN/A
12:20 PM66 °FScattered clouds.9 mph52%30.12 "HgN/A
11:50 AM66 °FScattered clouds.8 mph52%30.15 "HgN/A
11:20 AM64 °FScattered clouds.8 mph56%30.15 "HgN/A
10:50 AM64 °FScattered clouds.5 mph56%30.15 "HgN/A
10:20 AM66 °FPartly sunny.5 mph56%30.15 "HgN/A
9:50 AM64 °FPartly sunny.3 mph60%30.15 "HgN/A
9:20 AM63 °FScattered clouds.3 mph64%30.15 "HgN/A
Weather by CustomWeather, © 2015

See weather overviewHow to use our weather pages